Regional Weather Roundup
Issued by NWS

Home | Current Version | Previous Version | Text Only | Print | Product List | Glossary On
Versions: 1 2 3 4 5 6 7 8 9 10 11 12 13 14 15 16 17 18 19 20 21 22 23 24 25 26 27
000
ASUS42 KFFC 241103
RWRGA
WEATHER ROUNDUP FOR GEORGIA
NATIONAL WEATHER SERVICE PEACHTREE CITY GA
700 AM EDT FRI OCT 24 2014

NOTE: "FAIR" INDICATES FEW OR NO CLOUDS BELOW 12,000 FEET WITH NO
SIGNIFICANT WEATHER AND/OR OBSTRUCTIONS TO VISIBILITY.

* = USE WITH CAUTION. THE STATIONS MARKED WITH AN ASTERISK MAY NOT
REPORT WEATHER SUCH AS PRECIPITATION, FOG, OR THUNDER AND ARE NOT
QUALITY CONTROLLED BY NWS.

THE REMARK "TC" DENOTES TEMPERATURE READING IN DEGREES CELSIUS.

GAZ001>058-241200-
NORTH GEORGIA

CITY           SKY/WX    TMP DP  RH WIND       PRES   REMARKS
ATLANTA        CLOUDY    51  44  77 NE5       30.05S
ATHENS         MOCLDY    45  43  93 CALM      30.06R
CHAMBLEE       CLOUDY    48  44  86 CALM      30.06S
PEACHTREE CITY CLOUDY    44  43  96 CALM      30.07R
ROME           CLOUDY    49  45  86 CALM      30.06R
WEST ATLANTA   CLOUDY    46  43  89 CALM      30.06S
GAINESVILLE    MOCLDY    49  46  90 CALM      30.07S
CARTERSVILLE   CLOUDY    46  43  89 CALM      30.07S


CITY           SKY/WX    TMP DP  RH WIND       PRES   REMARKS
DALTON*        MOCLDY    46  45  93 NE5       30.06F
MARIETTA       MOCLDY    48  45  88 NE2       30.05S
KENNESAW*      CLEAR     46  43  87 CALM      30.08
$$

GAZ059>098-102>109-241200-
CENTRAL GEORGIA

CITY           SKY/WX    TMP DP  RH WIND       PRES   REMARKS
AUGUSTA-BUSH   CLOUDY    45  43  93 CALM      30.06R
AUGUSTA-DANIEL CLOUDY    52  45  77 NW3       30.06R
COLUMBUS       PTCLDY    49  46  90 CALM      30.06R
MACON          MOCLDY    45  45 100 CALM      30.05R
ROBINS AFB     MOCLDY    48  47  95 SE1       30.04S


CITY           SKY/WX    TMP DP  RH WIND       PRES   REMARKS
LAGRANGE*      PTCLDY    48  47  98 CALM      30.07R
SYLVANIA*      MOCLDY    49  48  97 CALM      30.06R
MILLEDGEVILLE* MOCLDY    50  50 100 CALM      30.05S FOG
$$

GAZ099>101-110>166-241200-
SOUTH GEORGIA

CITY           SKY/WX    TMP DP  RH WIND       PRES   REMARKS
SAVANNAH       MOCLDY    50  45  83 CALM      30.05R
VALDOSTA       MOCLDY    46  43  89 CALM      30.03S
ALMA           MOCLDY    47  46  97 CALM      30.03S FOG
ST SIMONS      PTCLDY    51  50  96 NW3       30.03R
ALBANY         CLOUDY    52  49  89 CALM      30.07R
HUNTER AFB     MOCLDY    47  45  93 W2        30.03R
MOODY AFB      MOCLDY    48  45  90 N1        30.03S
BRUNSWICK      PTCLDY    50  46  87 CALM      30.04F


CITY           SKY/WX    TMP DP  RH WIND       PRES   REMARKS
BAINBRIDGE*    CLOUDY    54  52  94 W6        30.05R
MOULTRIE*      CLOUDY    50  50 100 CALM      30.05R
VIDALIA*       MOCLDY    48  46  93 CALM      30.04S
WAYCROSS*      MOCLDY    50  49  97 CALM      30.04S
DOUGLAS*       MOCLDY    50  48  93 CALM      30.05S
$$



USA.gov is the U.S. government's official web portal to all federal, state and local government web resources and services.